Location: Unspecified
(0.0000°N, 0.0000°E)
Time: 23:42:13
(UTC+00:00)

ISS - Pass Details

Date: 09 April 2026
Orbit: 416 x 425 km, 51.6° (Epoch: 18 April)

Event Time Altitude Azimuth Distance (km) Brightness Sun altitude
Exits shadow 05:26:36 - 213° (SSW) 2,136 -0.6 -8.7°
Reaches altitude 10° 05:28:11 10° 212° (SSW) 1,490 -1.3 -8.3°
Maximum altitude 05:31:31 77° 126° (SE) 430 -3.6 -7.5°
Drops below altitude 10° 05:34:51 10° 39° (NE) 1,488 -0.2 -6.6°
Sets 05:36:57 0° 38° (NE) 2,351 0.8 -6.1°
